Regional Weather Roundup
Issued by NWS Northern Indiana

Home | Current Version | Previous Version | Text Only | Print | Product List | Glossary On
Versions: 1 2 3 4 5 6 7 8 9 10 11 12 13 14 15 16 17 18 19 20 21 22 23 24 25 26 27 28 29 30 31 32 33 34 35 36 37 38 39 40 41 42 43 44 45 46 47 48 49 50
000
ASUS43 KIWX 030910
RWRIWX

KIWX WEATHER ROUNDUP
NATIONAL WEATHER SERVICE NORTHERN INDIANA
500 AM EDT SUN MAY 03 2015

NOTE: "FAIR" INDICATES FEW OR NO CLOUDS BELOW 12,000 FEET WITH NO
SIGNIFICANT WEATHER AND/OR OBSTRUCTIONS TO VISIBILITY.

* THESE STATIONS ARE NOT UNDER NWS QUALITY CONTROL. THEY ALSO MAY NOT
  REPORT WEATHER SUCH AS PRECIPITATION OR FOG.

INZ001>027-031000-
NORTHERN INDIANA

CITY           SKY/WX    TMP DP  RH WIND       PRES   REMARKS
GARY*          PTCLDY    62  33  34 S5        29.99S
VALPARAISO     PTCLDY    53  39  59 S3        30.01S
MICHIGAN CITY* CLEAR     55  32  41 SW7       30.00S
LAPORTE*       CLEAR     49  42  75 CALM      30.01S
KNOX*          PTCLDY    52  27  37 S5        30.01R
SOUTH BEND     CLEAR     54  39  57 SW7       30.02S
GOSHEN         PTCLDY    54  40  59 S5        30.02S
MONTICELLO*    MOCLDY    56  43  61 S3        30.02S
LOGANSPORT*    FAIR      50  41  71 S5        30.04S
ROCHESTER*     MOCLDY    59  43  55 SW3       30.03S
WARSAW*        PTCLDY    46  41  81 CALM      30.03S
ANGOLA*        CLEAR     48  45  87 CALM      30.03S
FORT WAYNE     MOCLDY    49  42  77 S3        30.05R
HUNTINGTON*    MOCLDY    48  45  89 S3        30.04S
PERU/GRISSOM   MOCLDY    53  44  72 S5        30.03R
MARION*        MOCLDY    50  43  76 S5        30.05S

$$
INZ028>050-031000-
CENTRAL INDIANA

CITY           SKY/WX    TMP DP  RH WIND       PRES   REMARKS
LAFAYETTE      MOCLDY    52  43  71 CALM      30.03S
MUNCIE*        MOCLDY    55  43  63 S6        30.06R
INDIANAPOLIS   CLOUDY    55  44  66 CALM      30.04S

$$
MIZ043>046-050>051-056>058-064>065-071>073-077>080-031000-
SOUTHWEST LOWER MICHIGAN

CITY           SKY/WX    TMP DP  RH WIND       PRES   REMARKS
BATTLE CREEK   CLEAR     54  39  57 SW7       30.01R
BENTON HARBOR  PTCLDY    55  40  56 S6        29.99S
COLDWATER*     PTCLDY    54  39  58 SW6       30.02R
HILLSDALE*     CLEAR     58  39  48 SW5       30.03S
HOLLAND        CLEAR     59  40  49 SW12      29.98S
GRAND RAPIDS   CLEAR     57  37  47 SW8       29.98S
KALAMAZOO      CLEAR     51  40  65 SW7       30.00S
STURGIS*       PTCLDY    52  39  62 CALM      30.02S
THREE RIVERS*  FAIR      53  41  63 S5        30.02R

$$
OHZ001>008-015>018-024>025-031000-
NORTHWEST OHIO

CITY           SKY/WX    TMP DP  RH WIND       PRES   REMARKS
WAUSEON*       FAIR      54  41  62 CALM      30.04R
DEFIANCE       PTCLDY    51  43  74 S3        30.04S
FINDLAY        PTCLDY    53  42  66 S6        30.05R
TOLEDO EXPRESS PTCLDY    47  41  80 CALM      30.03S
TOLEDO METCALF PTCLDY    52  41  66 SW6       30.05R
LIMA           PTCLDY    51  42  71 S7        30.06R

$$
AND FOR LAKE MICHIGAN COASTAL AND OPEN LAKE BUOY OBSERVATIONS

STATION/POSITION TEMP    WIND        PRES    VSBY  WAVE
                 AIR SEA DIR/SP/G                  HT/PER
                 (F)     (DEG/KT/KT) (MB)    (MI)  (FT/S)
CALUMET HARBOR    61     190/  5/  7   N/A
MICHIGAN CITY     62     160/ 11/ 14   N/A
BURNS HARBOR      59     190/ 11/ 13 1015.9S
SAINT JOSEPH      62     160/  9/ 15 1016.6S
4 MI NW BRIDGMAN  53 49  220/  4/  6   N/A           1
MICHIGAN CITY     57 50  210/  8/ 10   N/A           1

$$
&&


USA.gov is the U.S. government's official web portal to all federal, state and local government web resources and services.